Regional Weather Roundup
Issued by NWS

Home | Current Version | Previous Version | Text Only | Print | Product List | Glossary Off
Versions: 1 2 3 4 5 6 7 8 9 10 11 12 13 14 15 16 17 18 19 20 21 22 23 24 25 26 27 28 29 30 31 32 33 34 35 36 37 38 39 40 41 42 43 44 45 46 47 48 49

000
ASUS45 KBOU 231610
RWRCO

WEATHER ROUNDUP FOR COLORADO
NATIONAL WEATHER SERVICE DENVER/BOULDER CO
1000 AM MDT MON APR 23 2018

NOTE: "FAIR" INDICATES FEW OR NO CLOUDS BELOW 12000 FEET WITH NO
SIGNIFICANT WEATHER AND/OR OBSTRUCTIONS TO VISIBILITY.

COZ001>005-013-030-031-231700-
...NORTHWEST COLORADO...

CITY           SKY/WX    TMP DP  RH WIND       PRES   REMARKS
CRAIG          FAIR      59  36  42 E9        30.09S
HAYDEN         FAIR      54  33  45 E12       30.11F
MEEKER         PTSUNNY   56  35  45 W5        30.11S
RANGELY        FAIR      56  38  51 W3        30.07R
RABBIT EARS PA FAIR      45  25  45 SW7       30.28S
STEAMBOAT SPGS FAIR      49  32  52 CALM      30.11F
WALDEN         FAIR      52  28  40 S9        30.18F
$$

COZ006>008-011-231700-
...WEST CENTRAL VALLEYS...

CITY           SKY/WX    TMP DP  RH WIND       PRES   REMARKS
GRAND JUNCTION FAIR      62  34  35 S5        30.07S
MONTROSE       FAIR      63  34  33 VRB5      30.13F
EAGLE          FAIR      50  33  52 CALM      30.19F
RIFLE          FAIR      54  39  57 CALM      30.12F
DELTA          FAIR      65  32  29 E3        30.11F
NUCLA          NOT AVBL
$$

COZ017>023-064>068-231700-
...SOUTHWEST COLORADO...

CITY           SKY/WX    TMP DP  RH WIND       PRES   REMARKS
DURANGO        FAIR      58  24  27 E8        30.20F
CORTEZ         FAIR      63  26  24 VRB3      30.16S
PAGOSA SPRINGS FAIR      56  21  26 SE3       30.26S
TELLURIDE      PTSUNNY   54  22  28 CALM      30.30S
WOLF CREEK PAS FAIR      36  19  51 S12       30.45S
$$

COZ009-010-012-014-032>034-037-058>063-231700-
...CENTRAL COLORADO...

CITY           SKY/WX    TMP DP  RH WIND       PRES   REMARKS
ASPEN          FAIR      53  30  41 S3        30.18S
BUENA VISTA    FAIR      48  32  53 CALM      30.22F
COPPER MTN     NOT AVBL
BERTHOUD PASS  PTSUNNY   30  21  69 W36G44    30.34S WCI  14
COTTONWOOD PAS FAIR      50  37  62 SE6       30.28S
GUNNISON       FAIR      48  32  53 CALM      30.25F
GRANBY         FAIR      43  31  61 CALM      30.22F
KREMMLING      FAIR      50  34  53 CALM      30.21F
LEADVILLE      PTSUNNY   44  29  55 CALM      30.27R
MONARCH PASS   FAIR      34  27  75 W18G25    30.48R WCI  23
SALIDA         FAIR      51  36  55 N3        30.27F
SUNLIGHT       FAIR      41  25  52 SW9G23    30.34S
WILKERSON PASS FAIR      37  25  60 W5        30.36R
$$

COZ069>075-231700-
...SAN LUIS VALLEY/SANGRE DE CRISTO MOUNTAINS...

CITY           SKY/WX    TMP DP  RH WIND       PRES   REMARKS
ALAMOSA        FAIR      51  28  41 CALM      30.22F
DEL NORTE      FAIR      52  26  37 E8        30.24S
LA VETA PASS   FAIR      46  25  42 S15G28    30.42R
SAGUACHE       NOT AVBL
$$

COZ035-036-038>040-231700-
...NORTHERN COLORADO FRONT RANGE...

CITY           SKY/WX    TMP DP  RH WIND       PRES   REMARKS
DENVER INTL AP PTSUNNY   53  40  61 CALM      30.09S
AURORA         NOT AVBL
FRONT RANGE AP PTSUNNY   57  43  58 NW8       30.10S
ERIE MUNI ARPT FAIR      52  41  64 N5        30.14S
BOULDER MUN AP FAIR      54  39  58 E3        30.08S
CENTENNIAL     PTSUNNY   57  39  51 CALM      30.09S
BROOMFIELD     PTSUNNY   54  41  62 N6        30.10S
FORT COLLINS   FAIR      50  39  66 VRB3      30.09F
LONGMONT       FAIR      57  40  52 CALM      30.10S
$$

COZ041-046-047-076>085-087-088-231700-
...PIKES PEAK/PALMER DIVIDE AND SOUTHERN FOOTHILLS...

CITY           SKY/WX    TMP DP  RH WIND       PRES   REMARKS
COLO. SPRINGS  FAIR      51  37  58 SW3       30.13S
A. F. ACADEMY  FAIR      53  35  52 S3        30.12S
SCHRIEVER AFB  NOT AVBL
CHEYENNE MTN   FAIR      49  38  66 CALM      30.09F
ELLICOTT         N/A    N/A N/A N/A S8        30.12S
FALCON         FAIR      53  34  49 S5        30.15S
FORT CARSON    FAIR      49  37  61 S3        30.12S
LIMON          FAIR      51  37  58 SE15      30.12F
MONUMENT HILL  FAIR      61  32  33 W9        30.14S
CANON CITY     FAIR      54  41  62 SE8       30.11S
WALSENBURG     NOT AVBL
TRINIDAD       FAIR      58  38  47 SE5       30.12F
$$

COZ042>045-048>051-090-091-231700-
...NORTHEAST COLORADO...

CITY           SKY/WX    TMP DP  RH WIND       PRES   REMARKS
GREELEY ARPT   FAIR      49  40  71 VRB3      30.10F
AKRON          FAIR      55  41  59 S16       30.10S
BURLINGTON     FAIR      54  40  59 S17       30.15S
WRAY           FAIR      55  37  50 S16       30.14F
YUMA           FAIR      54  34  47 S16       30.12S
STERLING       NOT AVBL
HOLYOKE        FAIR      59  41  51 S18G24    30.14S
FORT MORGAN    FAIR      53  37  55 E3        30.11R
$$

COZ086-089-092>099-231700-
...SOUTHEAST COLORADO...

CITY           SKY/WX    TMP DP  RH WIND       PRES   REMARKS
PUEBLO         FAIR      51  36  56 CALM      30.11F
LA JUNTA       FAIR      53  38  56 E5        30.12F
LAMAR          FAIR      59  40  49 S16G23    30.12F
SPRINGFIELD      N/A     56  39  53 S22       30.13F
$$




USA.gov is the U.S. government's official web portal to all federal, state and local government web resources and services.